CW6770 Weather Reports


Display with metric or nautical units.
time (UTC)temp
F
wind
direction
speed
MPH
gust
MPH
rain 1hr
in
rain 24hr
in
rain mn
in
humidity
%
barometer
mb
20210621182025 74 0 2.0 8.0 0.00 0.00 0.00 79 1008.0
20210621181623 74 124 2.0 8.0 0.00 0.00 0.00 81 1008.0
20210621181026 73 77 1.0 7.0 0.00 0.00 0.00 81 1007.9
20210621180535 74 119 2.0 7.0 0.00 0.00 0.00 79 1008.1
20210621180102 74 97 3.0 7.0 0.00 0.00 0.00 83 1008.0
20210621175525 73 88 2.0 7.0 0.00 0.00 0.00 81 1008.2
20210621175029 73 23 2.0 7.0 0.00 0.00 0.00 81 1008.3
20210621174622 74 263 1.0 7.0 0.00 0.00 0.00 82 1008.5
20210621174036 74 0 1.0 10.0 0.00 0.00 0.00 81 1008.4
20210621173529 74 182 3.0 10.0 0.00 0.00 0.00 80 1008.6
20210621173042 74 0 2.0 9.0 0.00 0.00 0.00 80 1008.8
20210621172544 75 288 2.0 9.0 0.00 0.00 0.00 81 1009.0
20210621172032 75 296 2.0 9.0 0.00 0.00 0.00 81 1009.1
20210621171606 75 283 2.0 8.0 0.00 0.00 0.00 80 1009.3
20210621171038 74 298 2.0 8.0 0.00 0.00 0.00 81 1009.3
20210621170542 74 236 1.0 10.0 0.00 0.00 0.00 83 1009.4
20210621170034 74 211 3.0 10.0 0.00 0.00 0.00 82 1009.3
20210621165528 74 274 2.0 9.0 0.00 0.00 0.00 83 1009.4
20210621165028 73 237 2.0 7.0 0.00 0.00 0.00 82 1009.6
20210621164617 72 77 2.0 8.0 0.00 0.00 0.00 81 1009.6
20210621164043 72 0 2.0 8.0 0.00 0.00 0.00 83 1009.6
20210621163526 72 246 3.0 8.0 0.00 0.00 0.00 82 1009.6
20210621163132 72 242 2.0 7.0 0.00 0.00 0.00 87 1009.6
20210621162542 72 109 2.0 8.0 0.00 0.00 0.00 82 1009.7
20210621162034 72 117 3.0 8.0 0.00 0.00 0.00 83 1009.7
20210621161558 71 30 3.0 9.0 0.00 0.00 0.00 82 1009.8
20210621161025 72 63 3.0 9.0 0.00 0.00 0.00 81 1009.8
20210621160525 74 93 2.0 7.0 0.00 0.00 0.00 83 1009.8
20210621160056 74 192 1.0 7.0 0.00 0.00 0.00 83 1009.8
20210621155525 73 85 1.0 7.0 0.00 0.00 0.00 82 1010.0
20210621155035 72 102 3.0 8.0 0.00 0.00 0.00 82 1010.1
20210621154556 72 75 3.0 8.0 0.00 0.00 0.00 83 1010.1
20210621154030 72 83 2.0 8.0 0.00 0.00 0.00 83 1010.1
20210621153535 72 19 2.0 9.0 0.00 0.00 0.00 83 1010.2
20210621153100 72 80 3.0 9.0 0.00 0.00 0.00 83 1010.2
20210621152528 72 132 2.0 7.0 0.00 0.00 0.00 82 1010.2
20210621152029 72 273 2.0 7.0 0.00 0.00 0.00 84 1010.1
20210621151605 71 80 2.0 7.0 0.00 0.00 0.00 85 1010.1
20210621151033 70 93 3.0 8.0 0.00 0.00 0.00 86 1010.2
20210621150532 69 92 3.0 8.0 0.00 0.00 0.00 88 1010.3
20210621150048 69 82 3.0 7.0 0.00 0.00 0.00 87 1010.1
20210621145525 68 0 2.0 7.0 0.00 0.00 0.00 88 1010.3
20210621145115 68 98 2.0 7.0 0.00 0.00 0.00 87 1010.4
20210621144556 68 78 2.0 7.0 0.00 0.00 0.00 87 1010.4
20210621144028 68 71 3.0 8.0 0.00 0.00 0.00 86 1010.2
20210621143542 68 51 2.0 8.0 0.00 0.00 0.00 86 1010.4
20210621143151 68 94 3.0 8.0 0.00 0.00 0.00 85 1010.3
20210621142525 69 79 3.0 8.0 0.00 0.00 0.00 85 1010.6
20210621142039 69 106 3.0 8.0 0.00 0.00 0.00 85 1010.4
20210621141547 69 0 1.0 6.0 0.00 0.00 0.00 86 1010.5
20210621141028 69 84 2.0 6.0 0.00 0.00 0.00 83 1010.6
20210621140527 69 94 2.0 6.0 0.00 0.00 0.00 85 1010.7
20210621140142 68 60 1.0 6.0 0.00 0.00 0.00 86 1010.5
20210621135525 68 0 1.0 6.0 0.00 0.00 0.00 86 1010.5
20210621135029 68 0 1.0 5.0 0.00 0.00 0.00 85 1010.5
20210621134559 68 92 1.0 6.0 0.00 0.00 0.00 85 1010.3
20210621134025 69 90 1.0 6.0 0.00 0.00 0.00 84 1010.6
20210621133529 68 89 2.0 7.0 0.00 0.00 0.00 85 1010.7
20210621133109 69 86 2.0 7.0 0.00 0.00 0.00 83 1010.9
20210621132528 69 90 2.0 7.0 0.00 0.00 0.00 83 1010.9
20210621132027 70 76 2.0 8.0 0.00 0.00 0.00 83 1010.9
20210621131534 70 95 4.0 8.0 0.00 0.00 0.00 82 1010.8
20210621131028 69 90 3.0 7.0 0.00 0.00 0.00 84 1010.9
20210621130527 68 94 5.0 7.0 0.00 0.00 0.00 84 1010.8
20210621130059 68 99 4.0 7.0 0.00 0.00 0.00 84 1010.8
20210621125532 67 94 4.0 7.0 0.00 0.00 0.00 85 1010.6
20210621125029 68 86 2.0 6.0 0.00 0.00 0.00 85 1010.4
20210621124610 68 92 2.0 6.0 0.00 0.00 0.00 85 1010.2
20210621124027 67 90 2.0 7.0 0.00 0.00 0.00 86 1010.2
20210621123525 67 85 4.0 7.0 0.00 0.00 0.00 85 1010.3
20210621123111 67 113 3.0 7.0 0.00 0.00 0.00 85 1010.1
20210621122535 69 0 1.0 6.0 0.00 0.00 0.00 83 1010.3
20210621122035 69 165 0.0 7.0 0.00 0.00 0.00 83 1010.4
20210621121610 69 275 2.0 7.0 0.00 0.00 0.00 81 1010.3
20210621121046 70 0 0.0 4.0 0.00 0.00 0.00 83 1010.1
20210621120541 69 0 0.0 4.0 0.00 0.00 0.00 85 1010.1
20210621120109 69 0 0.0 5.0 0.00 0.00 0.00 86 1010.0
20210621115526 68 348 1.0 5.0 0.00 0.00 0.00 88 1009.8
20210621115027 67 0 0.0 4.0 0.00 0.00 0.00 87 1009.7
20210621114652 66 319 0.0 6.0 0.00 0.00 0.00 90 1009.7
20210621114027 65 0 1.0 6.0 0.00 0.00 0.00 90 1009.7
20210621113527 64 94 3.0 6.0 0.00 0.00 0.00 88 1009.7
20210621113044 64 98 2.0 6.0 0.00 0.00 0.00 89 1009.8
20210621112529 64 95 3.0 4.0 0.00 0.00 0.00 89 1009.7
20210621112031 64 97 3.0 6.0 0.00 0.00 0.00 88 1009.7
20210621111535 64 98 2.0 6.0 0.00 0.00 0.00 88 1009.6
20210621111036 64 100 2.0 4.0 0.00 0.00 0.00 89 1009.6
20210621110525 64 115 1.0 4.0 0.00 0.00 0.00 89 1009.6
20210621110038 64 118 2.0 4.0 0.00 0.00 0.00 90 1009.5
20210621105532 64 117 2.0 4.0 0.00 0.00 0.00 90 1009.5
20210621105027 63 131 1.0 4.0 0.00 0.00 0.00 92 1009.6
20210621104630 63 132 1.0 3.0 0.00 0.00 0.00 92 1009.6
20210621104039 63 132 0.0 2.0 0.00 0.00 0.00 92 1009.4
20210621103525 62 0 0.0 0.0 0.00 0.00 0.00 93 1009.6
20210621103124 62 0 0.0 0.0 0.00 0.00 0.00 93 1009.7
20210621102533 62 0 0.0 0.0 0.00 0.00 0.00 94 1009.6
20210621102025 62 0 0.0 0.0 0.00 0.00 0.00 95 1009.6
20210621101541 61 0 0.0 0.0 0.00 0.00 0.00 95 1009.5
20210621101100 61 0 0.0 0.0 0.00 0.00 0.00 96 1009.4
20210621100528 61 0 0.0 0.0 0.00 0.00 0.00 97 1009.4
20210621100045 60 0 0.0 0.0 0.00 0.00 0.00 97 1009.5
20210621095525 59 0 0.0 0.0 0.00 0.00 0.00 96 1009.6
20210621095028 59 0 0.0 0.0 0.00 0.00 0.00 96 1009.6
20210621094642 59 0 0.0 0.0 0.00 0.00 0.00 96 1009.5
20210621094037 59 0 0.0 0.0 0.00 0.00 0.00 96 1009.6
20210621093546 58 0 0.0 0.0 0.00 0.00 0.00 96 1009.6
20210621093112 58 0 0.0 0.0 0.00 0.00 0.00 96 1009.7
20210621092525 58 0 0.0 0.0 0.00 0.00 0.00 96 1009.5
20210621092025 58 0 0.0 0.0 0.00 0.00 0.00 96 1009.6
20210621091606 58 0 0.0 0.0 0.00 0.00 0.00 96 1009.6
20210621091049 58 0 0.0 0.0 0.00 0.00 0.00 96 1009.6
20210621090534 58 0 0.0 0.0 0.00 0.00 0.00 96 1009.4
20210621090052 57 0 0.0 0.0 0.00 0.00 0.00 96 1009.4
20210621085528 57 0 0.0 0.0 0.00 0.00 0.00 96 1009.4
20210621085029 57 0 0.0 0.0 0.00 0.00 0.00 96 1009.5
20210621084538 57 0 0.0 0.0 0.00 0.00 0.00 96 1009.5
20210621084027 57 0 0.0 0.0 0.00 0.00 0.00 95 1009.5
20210621083533 58 0 0.0 0.0 0.00 0.00 0.00 95 1009.5
20210621083034 58 0 0.0 0.0 0.00 0.00 0.00 95 1009.5
20210621082537 58 0 0.0 0.0 0.00 0.00 0.00 95 1009.5
20210621082025 58 0 0.0 0.0 0.00 0.00 0.00 95 1009.5
20210621081617 58 0 0.0 0.0 0.00 0.00 0.00 95 1009.5
20210621081028 58 0 0.0 0.0 0.00 0.00 0.00 95 1009.5
20210621080536 58 0 0.0 0.0 0.00 0.00 0.00 95 1009.6
20210621080058 58 0 0.0 0.0 0.00 0.00 0.00 95 1009.6
20210621075524 58 0 0.0 0.0 0.00 0.00 0.00 95 1009.6
20210621075027 58 0 0.0 0.0 0.00 0.00 0.00 94 1009.6
20210621074600 58 0 0.0 0.0 0.00 0.00 0.00 94 1009.5
20210621074028 58 0 0.0 0.0 0.00 0.00 0.00 94 1009.5
20210621073533 58 0 0.0 2.0 0.00 0.00 0.00 94 1009.6
20210621073059 58 0 0.0 3.0 0.00 0.00 0.00 94 1009.6
20210621072544 58 244 1.0 3.0 0.00 0.00 0.00 94 1009.6
20210621072025 58 0 0.0 0.0 0.00 0.00 0.00 94 1009.5
20210621071602 59 0 0.0 0.0 0.00 0.00 0.00 94 1009.6
20210621071034 59 0 0.0 0.0 0.00 0.00 0.00 94 1009.6
20210621070536 59 0 0.0 0.0 0.00 0.00 0.00 93 1009.5
20210621070053 59 0 0.0 0.0 0.00 0.00 0.00 94 1009.6
20210621065527 59 0 0.0 0.0 0.00 0.00 0.00 94 1009.5
20210621065028 59 0 0.0 0.0 0.00 0.00 0.00 93 1009.5
20210621064538 59 0 0.0 0.0 0.00 0.00 0.00 93 1009.6
20210621064055 59 0 0.0 0.0 0.00 0.00 0.00 94 1009.6
20210621063525 59 0 0.0 0.0 0.00 0.00 0.00 94 1009.6
20210621063242 59 0 0.0 0.0 0.00 0.00 0.00 93 1009.6
20210621062554 59 0 0.0 0.0 0.00 0.00 0.00 94 1009.6
20210621062028 59 0 0.0 0.0 0.00 0.00 0.00 93 1009.7
20210621061606 59 0 0.0 0.0 0.00 0.00 0.00 93 1009.6
20210621061033 59 0 0.0 0.0 0.00 0.00 0.00 93 1009.7
20210621060543 59 0 0.0 0.0 0.00 0.00 0.00 94 1009.6
20210621060116 59 0 0.0 0.0 0.00 0.00 0.00 93 1009.6
20210621055527 59 0 0.0 0.0 0.00 0.00 0.00 93 1009.5
20210621055027 59 0 0.0 0.0 0.00 0.00 0.00 93 1009.4
20210621054540 59 0 0.0 0.0 0.00 0.00 0.00 92 1009.5
20210621054025 59 0 0.0 0.0 0.00 0.00 0.00 92 1009.5
20210621053537 59 0 0.0 0.0 0.00 0.00 0.00 92 1009.4
20210621053114 59 0 0.0 0.0 0.00 0.00 0.00 92 1009.4
20210621052533 60 0 0.0 0.0 0.00 0.00 0.00 91 1009.4
20210621052028 60 0 0.0 0.0 0.00 0.00 0.00 91 1009.6
20210621051610 60 0 0.0 0.0 0.00 0.00 0.00 91 1009.5
20210621051033 60 0 0.0 0.0 0.00 0.00 0.00 91 1009.5
20210621050541 60 0 0.0 0.0 0.00 0.00 0.00 91 1009.5
20210621050053 60 0 0.0 0.0 0.00 0.00 0.00 91 1009.4
20210621045543 60 0 0.0 0.0 0.00 0.00 0.00 91 1009.4
20210621045025 60 0 0.0 0.0 0.00 0.00 0.00 90 1009.4
20210621044600 61 0 0.0 0.0 0.00 0.00 0.00 90 1009.5
20210621044025 61 0 0.0 0.0 0.00 0.00 0.00 90 1009.6
20210621043527 61 0 0.0 0.0 0.00 0.00 0.00 90 1009.4
20210621043052 61 0 0.0 0.0 0.00 0.00 0.00 90 1009.6
20210621042538 61 0 0.0 1.0 0.00 0.00 0.00 89 1009.5
20210621042033 61 0 0.0 1.0 0.00 0.00 0.00 88 1009.6
20210621041603 62 0 0.0 1.0 0.00 0.00 0.00 88 1009.6
20210621041024 62 0 0.0 0.0 0.00 0.00 0.00 87 1009.7
20210621040548 62 0 0.0 0.0 0.00 0.00 0.00 87 1009.7
20210621040051 62 0 0.0 2.0 0.00 0.00 0.00 87 1009.7
20210621035536 63 0 0.0 2.0 0.00 0.00 0.00 86 1009.6
20210621035027 63 0 1.0 2.0 0.00 0.00 0.00 86 1009.8
20210621034555 63 0 0.0 0.0 0.00 0.00 0.00 86 1009.8
20210621034027 63 0 0.0 0.0 0.00 0.00 0.00 86 1010.0
20210621033528 63 0 0.0 0.0 0.00 0.00 0.00 85 1010.1
20210621033157 63 0 0.0 0.0 0.00 0.00 0.00 84 1010.1
20210621032528 63 0 0.0 1.0 0.00 0.00 0.00 84 1010.1
20210621032039 63 0 0.0 2.0 0.00 0.00 0.00 84 1010.2
20210621031544 63 0 0.0 2.0 0.00 0.00 0.00 84 1010.1
20210621031038 63 0 0.0 0.0 0.00 0.00 0.00 83 1010.0
20210621030529 63 0 0.0 0.0 0.00 0.00 0.00 83 1009.9
20210621030045 63 0 0.0 0.0 0.00 0.00 0.00 82 1009.9
20210621025530 63 0 0.0 0.0 0.00 0.00 0.00 82 1009.8
20210621025028 64 0 0.0 0.0 0.00 0.00 0.00 82 1009.8
20210621024634 64 0 0.0 0.0 0.00 0.00 0.00 81 1009.7
20210621024028 64 0 0.0 0.0 0.00 0.00 0.00 80 1009.7
20210621023534 64 0 0.0 0.0 0.00 0.00 0.00 80 1009.8
20210621023101 64 0 0.0 0.0 0.00 0.00 0.00 80 1009.6
20210621022535 64 0 0.0 0.0 0.00 0.00 0.00 79 1009.7
20210621022029 64 0 0.0 0.0 0.00 0.00 0.00 79 1009.7
20210621021554 65 0 0.0 0.0 0.00 0.00 0.00 78 1009.7
20210621021029 65 0 0.0 0.0 0.00 0.00 0.00 78 1009.8
20210621020533 65 0 0.0 0.0 0.00 0.00 0.00 78 1009.8
20210621020120 65 0 0.0 1.0 0.00 0.00 0.00 77 1009.9
20210621015601 65 0 0.0 1.0 0.00 0.00 0.00 77 1010.0
20210621015037 65 0 0.0 1.0 0.00 0.00 0.00 77 1010.0
20210621014606 65 0 0.0 1.0 0.00 0.00 0.00 77 1010.0
20210621014029 66 0 0.0 2.0 0.00 0.00 0.00 77 1009.9
20210621013538 66 0 0.0 2.0 0.00 0.00 0.00 76 1009.8
20210621013109 66 0 0.0 1.0 0.00 0.00 0.00 76 1009.7
20210621012528 66 0 0.0 2.0 0.00 0.00 0.00 75 1009.6
20210621012027 66 0 0.0 2.0 0.00 0.00 0.00 75 1009.4
20210621011544 66 0 0.0 0.0 0.00 0.00 0.00 74 1009.4
20210621011030 66 0 0.0 0.0 0.00 0.00 0.00 74 1009.3
20210621010528 67 0 0.0 0.0 0.00 0.00 0.00 74 1009.2
20210621010126 67 0 0.0 2.0 0.00 0.00 0.00 73 1009.2
20210621005537 67 0 0.0 2.0 0.00 0.00 0.00 72 1009.1
20210621005035 67 0 0.0 2.0 0.00 0.00 0.00 72 1009.1
20210621004534 68 0 0.0 2.0 0.00 0.00 0.00 72 1009.2
20210621004028 68 0 0.0 3.0 0.00 0.00 0.00 71 1009.1
20210621003535 68 0 0.0 3.0 0.00 0.00 0.00 71 1009.0
20210621003151 68 0 0.0 7.0 0.00 0.00 0.00 71 1008.9
20210621002528 68 0 1.0 7.0 0.00 0.00 0.00 70 1009.0
20210621002028 68 196 2.0 7.0 0.00 0.00 0.00 70 1008.7
20210621001644 69 0 0.0 7.0 0.00 0.00 0.00 70 1008.8
20210621001027 69 229 1.0 7.0 0.00 0.00 0.00 70 1008.9
20210621000527 69 253 2.0 6.0 0.00 0.00 0.00 69 1008.8
20210621000120 69 0 2.0 6.0 0.00 0.00 0.00 69 1008.7
20210620235545 69 244 1.0 8.0 0.00 0.00 0.00 68 1008.8
20210620235047 70 232 1.0 8.0 0.00 0.00 0.00 68 1008.6
20210620234552 70 234 0.0 7.0 0.00 0.00 0.00 68 1008.6
20210620234106 70 229 1.0 7.0 0.00 0.00 0.00 67 1008.6
20210620233546 71 180 1.0 6.0 0.00 0.00 0.00 67 1008.7
20210620233042 71 247 1.0 4.0 0.00 0.00 0.00 67 1008.8
20210620232528 71 182 1.0 5.0 0.00 0.00 0.00 67 1008.7
20210620232055 72 252 2.0 5.0 0.00 0.00 0.00 66 1008.6
20210620231540 72 238 1.0 6.0 0.00 0.00 0.00 66 1008.7
20210620231032 73 252 0.0 6.0 0.00 0.00 0.00 66 1008.7
20210620230529 73 234 1.0 6.0 0.00 0.00 0.00 65 1008.6
20210620230029 73 177 2.0 8.0 0.00 0.00 0.00 63 1008.6
20210620225527 74 249 2.0 8.0 0.00 0.01 0.00 63 1008.5
20210620225029 74 0 1.0 7.0 0.00 0.01 0.00 62 1008.5
20210620224544 74 0 1.0 8.0 0.00 0.01 0.00 62 1008.5
20210620224027 74 232 2.0 8.0 0.00 0.01 0.00 62 1008.4
20210620223528 75 259 3.0 9.0 0.00 0.01 0.00 62 1008.4
20210620223040 75 287 2.0 9.0 0.00 0.01 0.00 61 1008.2
20210620222528 76 145 1.0 7.0 0.00 0.01 0.00 61 1008.3
20210620222028 76 232 1.0 5.0 0.00 0.01 0.00 61 1008.1
20210620221625 76 0 0.0 7.0 0.00 0.01 0.00 61 1008.0
20210620221030 76 245 1.0 8.0 0.00 0.01 0.00 60 1007.9
20210620220528 76 232 2.0 8.0 0.00 0.01 0.00 60 1008.0
20210620220042 76 0 3.0 12.0 0.00 0.01 0.00 59 1007.9
20210620215527 76 235 4.0 12.0 0.00 0.06 0.00 58 1008.0
20210620215029 77 226 3.0 7.0 0.00 0.06 0.00 57 1007.9
20210620214543 78 275 2.0 7.0 0.00 0.06 0.00 55 1007.8
20210620214028 78 273 3.0 10.0 0.00 0.06 0.00 55 1007.7
20210620213531 78 264 2.0 10.0 0.00 0.06 0.00 54 1007.7
20210620213057 79 0 2.0 8.0 0.00 0.06 0.00 55 1007.6
20210620212603 79 252 2.0 9.0 0.00 0.06 0.00 54 1007.6
20210620212032 79 224 3.0 9.0 0.00 0.06 0.00 55 1007.7
20210620211621 79 239 2.0 9.0 0.00 0.06 0.00 56 1007.6
20210620211034 80 238 1.0 5.0 0.00 0.06 0.00 56 1007.7
20210620210549 80 0 1.0 7.0 0.00 0.06 0.00 53 1007.7
20210620210045 80 149 3.0 7.0 0.00 0.06 0.00 53 1007.6
20210620205529 80 248 1.0 6.0 0.00 0.06 0.00 53 1007.6
20210620205049 80 286 1.0 6.0 0.00 0.06 0.00 54 1007.8
20210620204609 80 247 1.0 10.0 0.00 0.06 0.00 53 1007.7
20210620204028 80 196 2.0 10.0 0.00 0.06 0.00 53 1007.8
20210620203527 80 0 3.0 9.0 0.00 0.06 0.00 53 1007.7
20210620203058 80 282 3.0 12.0 0.00 0.06 0.00 54 1007.8
20210620202528 80 239 3.0 12.0 0.00 0.06 0.00 55 1007.7
20210620202028 80 189 4.0 12.0 0.00 0.06 0.00 55 1007.7
20210620201604 80 239 3.0 12.0 0.00 0.06 0.00 54 1007.8
20210620201028 81 251 2.0 10.0 0.00 0.06 0.00 51 1007.7
20210620200527 81 228 3.0 14.0 0.00 0.06 0.00 51 1007.8
20210620200042 81 281 4.0 14.0 0.00 0.06 0.00 52 1007.7
20210620195527 82 253 3.0 8.0 0.00 0.06 0.00 54 1007.6
20210620195028 82 254 2.0 8.0 0.00 0.06 0.00 52 1007.4
20210620194604 82 0 2.0 9.0 0.00 0.06 0.00 49 1007.5
20210620194057 82 105 3.0 9.0 0.00 0.06 0.00 49 1007.4
20210620193527 82 263 2.0 8.0 0.00 0.06 0.00 48 1007.4
20210620193106 81 233 2.0 8.0 0.00 0.06 0.00 50 1007.2
20210620192527 80 0 2.0 8.0 0.00 0.06 0.00 49 1007.2
20210620192029 81 244 2.0 11.0 0.00 0.06 0.00 47 1007.4
20210620191639 80 296 3.0 11.0 0.00 0.06 0.00 52 1007.3
20210620191039 80 205 2.0 10.0 0.00 0.06 0.00 51 1007.2
20210620190528 81 213 3.0 12.0 0.00 0.06 0.00 49 1007.3
20210620190035 81 261 3.0 12.0 0.00 0.06 0.00 52 1007.3
20210620185537 80 0 1.0 10.0 0.00 0.06 0.00 50 1007.2
20210620185028 79 271 1.0 10.0 0.00 0.06 0.00 55 1007.2
20210620184553 79 229 1.0 6.0 0.00 0.06 0.00 53 1007.0
20210620184035 79 185 1.0 8.0 0.00 0.06 0.00 52 1007.0
20210620183528 80 0 3.0 8.0 0.00 0.06 0.00 52 1007.1
20210620183057 80 229 2.0 7.0 0.00 0.06 0.00 51 1007.1
20210620182535 80 203 2.0 7.0 0.00 0.06 0.00 54 1007.1